Flag Weather past 2 weeks in Nassau, Bahamas

Now
72 °F

Passing clouds.


Feels Like: 76 °F
Forecast: 70 / 75 °F
Wind: 12 mph from Northeast

Location: Nassau Airport

Current Time: Nov 29, 2014 at 3:54:41 AM

Latest Report: Nov 29, 2014 at 3:00 AM


Visibility: N/A

Pressure: 30.11 "Hg

Humidity: 61%

Dew point: 57 °F

Location of NassauLocation

Historic Weather in Nassau — Graph

°F

Nassau temperature yesterday

Maximum temperature yesterday: 73 °F (at 10:00 AM)
Minimum temperature yesterday: 70 °F (at 5:00 AM)
Average temperature yesterday: 71 °F

Past Weeks' High & Low Weather Summary

 TemperatureHumidityPressure
High86 °F (Nov 17, 1:00 PM)100% (Nov 18, 7:00 AM)30.20 "Hg (Nov 18, 7:00 AM)
Low70 °F (Nov 28, 5:00 AM)20% (Nov 14, 4:00 PM)29.95 "Hg (Nov 14, 3:00 AM)
Average77 °F81%30.07 "Hg
* Reported Nov 14 3:00 AM — Nov 29 3:00 AM, Nassau, Weather by CustomWeather, © 2014

Note: Actual official high and low records may vary slightly from our data, if they occured in-between our weather recording intervals... More about our weather records

Advertising

Nassau weather history for previous 24 hours

 ConditionsComfort  
Time TempWeatherWind HumidityBarometerVisibility
3:00 AM
Nov 29
72 °FPassing clouds.12 mph61%30.11 "HgN/A
2:00 AM72 °FPassing clouds.12 mph61%30.11 "HgN/A
1:00 AM72 °FPassing clouds.12 mph69%30.12 "HgN/A
12:00 AM70 °FPassing clouds.14 mph64%30.12 "HgN/A
11:00 PM
Nov 28
70 °FPassing clouds.14 mph60%30.14 "HgN/A
10:00 PM70 °FPassing clouds.12 mph73%30.14 "HgN/A
9:00 PM70 °FPassing clouds.12 mph57%30.14 "HgN/A
8:00 PM70 °FPassing clouds.12 mph57%30.14 "HgN/A
7:00 PM72 °FPassing clouds.12 mph69%30.13 "HgN/A
6:00 PM70 °FPassing clouds.12 mph60%30.12 "HgN/A
4:00 PM72 °FScattered clouds.14 mph73%30.10 "HgN/A
1:00 PM73 °FPassing clouds.12 mph61%30.11 "HgN/A
12:00 PM72 °FBroken clouds.13 mph57%30.14 "HgN/A
11:00 AM72 °FPartly sunny.13 mph53%30.15 "HgN/A
10:00 AM73 °FBroken clouds.13 mph61%30.16 "HgN/A
9:00 AM70 °FBroken clouds.14 mph57%30.15 "HgN/A
8:00 AM70 °FBroken clouds.7 mph57%30.13 "HgN/A
7:00 AM70 °FScattered clouds.13 mph69%30.13 "HgN/A
6:00 AM70 °FPassing clouds.14 mph57%30.11 "HgN/A
5:00 AM70 °FPassing clouds.14 mph57%30.10 "HgN/A
Weather by CustomWeather, © 2014

See weather overviewHow to use our weather pages